Retour au catalogue

FENGYUN 1C DEB

ActifPO
NORAD 30686·DEBRIS·🇨🇳 China

Lancé May 10, 1999 depuis Taiyuan Satellite Launch Center

Loading…

Prochains Passages (prochaines 24 heures)

TLE

FraisSource: Space-Track

Époque: Sep 14, 2026, 14:18 UTC

1 30686U 99025AQU 26257.59597483  .00003242  00000-0  40728-3 0  9995
2 30686  99.0058 128.2384 0137399 340.2443  48.8567 14.76518595 36701

Suivez FENGYUN 1C DEB en temps réel avec AllMySat

Download on the App Store